Regional Weather Roundup
Issued by NWS

Home | Current Version | Previous Version | Graphics & Text | Print | Product List | Glossary On
Versions: 1 2 3 4 5 6 7 8 9 10 11 12 13 14 15 16 17 18 19 20 21 22 23 24 25 26 27 28 29 30 31 32 33 34 35 36 37 38 39 40 41 42 43 44 45 46 47 48 49 50
000
ASUS43 KDMX 152207
RWRIA

WEATHER ROUNDUP FOR IOWA
NATIONAL WEATHER SERVICE DES MOINES IA
500 PM CDT MON SEP 15 2014

NOTE: "FAIR" INDICATES FEW OR NO CLOUDS BELOW 12,000 FEET WITH NO
SIGNIFICANT WEATHER AND/OR OBSTRUCTIONS TO VISIBILITY.

* - THESE STATIONS ARE NOT NWS STATIONS...THUS NOT UNDER NWS
QUALITY CONTROL.  THEY ALSO DO NOT REPORT WEATHER SUCH
AS PRECIPITATION OR FOG.

IAZ001>003-012>014-020>022-031>034-043>046-152300-
   NORTHWEST IOWA

CITY           SKY/WX    TMP DP  RH WIND       PRES   REMARKS
CARROLL *      PTSUNNY   59  45  58 N12       30.22S
CHEROKEE *     MOSUNNY   61  43  51 N8        30.23S
DENISON *      CLOUDY    59  45  58 N7        30.22S
LE MARS *      SUNNY     61  41  48 N6        30.25S
ORANGE CITY *  MOSUNNY   63  37  39 N5        30.24S
SHELDON *      MOSUNNY   61  39  44 NW5       30.22F
SIOUX CITY     MOSUNNY   64  42  44 N12       30.24F
SPENCER        MOSUNNY   62  40  44 N12       30.23F
STORM LAKE *   MOSUNNY   61  48  63 N12       30.23R
$$

IAZ055>058-069>071-079>083-090>094-152300-
   SOUTHWEST IOWA

CITY           SKY/WX    TMP DP  RH WIND       PRES   REMARKS
ATLANTIC *     CLOUDY    59  46  63 N10       30.22S
AUDUBON *      PTSUNNY   63  50  63 N10       30.23S
CLARINDA *     CLOUDY    63  50  63 N10G16    30.22R
COUNCIL BLFS * CLOUDY    63  48  59 NE9       30.22F
CRESTON *      CLOUDY    59  50  72 N16G23    30.21R
HARLAN  *      CLOUDY    59  48  67 N8        30.27R
LAMONI         PTSUNNY   60  50  69 N14       30.19R
SHENANDOAH *   PTSUNNY   64  50  59 N12G18    30.22S
$$

IAZ047>049-059>061-072>074-084-152300-
   CENTRAL IOWA

CITY           SKY/WX    TMP DP  RH WIND       PRES   REMARKS
AMES           CLOUDY    60  46  59 N12       30.20S
ANKENY *       CLOUDY    59  46  63 N13       30.20R
CHARITON *     PTSUNNY   61  52  72 N12G18    30.18R
DES MOINES     PTSUNNY   61  47  59 N16       30.19S
GRINNELL*      PTSUNNY   59  48  67 N9        30.19R
KNOXVILLE *    CLOUDY    59  48  67 N9G16     30.17R
MARSHALLTOWN   CLOUDY    59  46  62 N10       30.18S
PELLA *        CLOUDY    61  52  72 N9        30.19R
PERRY *        CLOUDY    61  46  59 N10       30.21S
$$

IAZ004>006-015-016-023>025-035-036-152300-
   NORTH CENTRAL IOWA

CITY           SKY/WX    TMP DP  RH WIND       PRES   REMARKS
ALGONA *       MOSUNNY   59  39  47 N9        30.21F
CLARION *        N/A     59  43  55 N9        30.20F
ESTHERVILLE    MOSUNNY   60  40  47 N8        30.22S
FORT DODGE *   CLOUDY    59  45  58 CALM      30.22S
MASON CITY     PTSUNNY   62  42  47 N13       30.20F
FOREST CITY *  MOSUNNY   59  43  55 N7        30.20S
IOWA FALLS *   CLOUDY    57  46  67 N6        30.21S
$$

IAZ007>011-017>019-026>030-037>042-050>054-066-152300-
   NORTHEAST IOWA

CITY           SKY/WX    TMP DP  RH WIND       PRES   REMARKS
CEDAR RAPIDS   PTSUNNY   60  50  69 N14       30.15S
CHARLES CITY * MOSUNNY   59  45  58 CALM      30.19S
CLINTON *      CLOUDY    55  50  82 N13       30.16R
DECORAH *      MOSUNNY   57  45  62 N8        30.16S
DUBUQUE        CLOUDY    55  50  83 N12       30.16R
MONTICELLO *   CLOUDY    57  48  72 N14       30.16R
OELWEIN *      MOSUNNY   61  43  51 N9G16     30.17F
WATERLOO       CLOUDY    60  45  57 N10       30.17S
$$

IAZ064-065-067-068-078-152300-
   EAST CENTRAL IOWA

CITY           SKY/WX    TMP DP  RH WIND       PRES   REMARKS
DAVENPORT      CLOUDY    57  50  77 NE16      30.14R
IOWA CITY      PTSUNNY   60  50  69 N16       30.16R
MT. PLEASANT * CLOUDY    63  52  67 N12G18    30.13R
MUSCATINE *    CLOUDY    61  52  72 N15       30.13R
QUAD CITIES    LGT RAIN  58  51  78 N12       30.12R
$$

IAZ062-063-075>077-085>089-095>099-152300-
   SOUTHEAST IOWA

CITY           SKY/WX    TMP DP  RH WIND       PRES   REMARKS
BURLINGTON     CLOUDY    64  57  78 N14G23    30.10R
FAIRFIELD *    CLOUDY    61  52  72 N14G21    30.14R
FORT MADISON * CLOUDY    66  57  72 N14       30.11R
KEOKUK *       CLOUDY    64  61  88 NW6       30.09R
OSKALOOSA *      N/A     61  52  72 N15G21    30.17R
CENTERVILLE *  CLOUDY    59  54  82 N12G21    30.18R
OTTUMWA        CLOUDY    60  50  69 N17       30.16R
WASHINGTON *   CLOUDY    61  54  77 N15G24    30.14R
$$

ABBREVIATIONS USED IN REMARKS
   TC - TEMPERATURES IN CELSIUS
  WCI - WIND CHILL INDEX
   HX - HEAT INDEX
  VSB - VISIBILITY
$$



USA.gov is the U.S. government's official web portal to all federal, state and local government web resources and services.